Wayne, NE

11:50 AM CDT on September 27, 2016 (GMT -0500)
Wayne Municipal

Weather History for KLCG - September, 2013

Change the Weather History Date:

Wednesday, September 4, 2013

  Actual Average (KOFK) Record (KOFK)
Temperature  
Mean Temperature 76 °F 69 °F  
Max Temperature 86 °F 81 °F 102 °F (1913)
Min Temperature 65 °F 56 °F 34 °F (1902)
Degree Days  
Heating Degree Days 0 2  
Month to date heating degree days 5  
Since 1 July heating degree days 21  
Cooling Degree Days 10 5  
Month to date cooling degree days 22  
Year to date cooling degree days 838  
Growing Degree Days 26 (Base 50)    
Moisture  
Dew Point 63 °F    
Average Humidity 72    
Maximum Humidity 92    
Minimum Humidity 43    
Precipitation  
Precipitation 0.00 in 0.10 in 1.05 in (1929)
Month to date precipitation 0.38  
Year to date precipitation 20.91  
Snow  
Snow 0.00 in 0.00 in - ()
Month to date snowfall 0.0  
Since 1 July snowfall 0.0  
Snow Depth -    
Sea Level Pressure  
Sea Level Pressure 30.10 in    
Wind  
Wind Speed 5 mph (SSE)    
Max Wind Speed 12 mph    
Max Gust Speed -    
Visibility 8 miles    
Events Rain , Thunderstorm    
T = Trace of Precipitation, MM = Missing Value Source: NWS Daily Summary

Daily Weather History Graph

Daily Weather History Graph

Search for Another Location

Airport or City:

Trip Planner

Search our weather history database for the weather conditions in past years. The results will help you decide how hot, cold, wet, or windy it might be!

Date:

Astronomy

Sep. 04, 2013 Rise Set
Actual Time 6:56 AM CDT 7:56 PM CDT
Civil Twilight 6:28 AM CDT 8:24 PM CDT
Nautical Twilight 5:53 AM CDT 8:58 PM CDT
Astronomical Twilight 5:18 AM CDT 9:34 PM CDT
Moon 6:10 AM CDT (9/4) 7:15 PM CDT (9/4)
Length of Visible Light 13h 56m
Length of Day
12h 59m
Waning Crescent, 1% of the Moon is Illuminated
Sep 4
Waning Crescent
Sep 5
New
Sep 12
First Quarter
Sep 19
Full
Sep 26
Last Quarter

Hourly Weather History & Observations

Time (CDT) Temp. Heat Index Dew Point Humidity Pressure Visibility Wind Dir Wind Speed Gust Speed Precip Events Conditions
12:15 AM 68.5 °F - 64.2 °F 86% 30.03 in 7.0 mi SSW 3.5 mph - N/A Rain Heavy Rain
12:35 AM 68.2 °F - 64.0 °F 87% 30.03 in 7.0 mi SSW 4.6 mph - N/A Rain Rain
12:55 AM 68.2 °F - 63.9 °F 86% 30.03 in 7.0 mi SSW 4.6 mph - N/A Rain Heavy Rain
1:15 AM 68.2 °F - 63.3 °F 84% 30.04 in 7.0 mi SSW 5.8 mph - N/A Rain Heavy Rain
1:35 AM 68.0 °F - 63.5 °F 85% 30.04 in 7.0 mi South 3.5 mph - N/A Rain Rain
1:55 AM 67.6 °F - 63.5 °F 87% 30.05 in 7.0 mi South 3.5 mph - N/A Rain Rain
2:15 AM 67.8 °F - 63.5 °F 86% 30.06 in 7.0 mi Calm Calm - N/A Rain Heavy Rain
2:35 AM 67.6 °F - 63.5 °F 87% 30.06 in 10.0 mi Calm Calm - N/A Rain Rain
2:55 AM 66.7 °F - 63.5 °F 89% 30.06 in 10.0 mi SSE 3.5 mph - N/A Rain Light Rain
3:15 AM 65.8 °F - 62.8 °F 90% 30.06 in 10.0 mi SSE 6.9 mph - N/A Rain Rain
3:35 AM 67.5 °F - 62.4 °F 84% 30.06 in 10.0 mi South 4.6 mph - N/A Rain Heavy Rain
3:55 AM 67.1 °F - 62.6 °F 85% 30.06 in 7.0 mi SSW 3.5 mph - N/A Rain Heavy Rain
4:15 AM 67.1 °F - 62.6 °F 85% 30.06 in 7.0 mi SSE 3.5 mph - N/A Rain Rain
4:35 AM 66.6 °F - 62.6 °F 87% 30.07 in 7.0 mi Calm Calm - N/A Rain Rain
4:55 AM 66.2 °F - 62.8 °F 89% 30.07 in 7.0 mi South 3.5 mph - N/A Rain Rain
5:15 AM 66.0 °F - 63.1 °F 90% 30.08 in 7.0 mi Calm Calm - N/A Rain Rain
5:35 AM 65.5 °F - 63.1 °F 92% 30.08 in 10.0 mi South 4.6 mph - N/A Rain , Thunderstorm Rain
5:55 AM 65.8 °F - 63.0 °F 90% 30.08 in 10.0 mi South 6.9 mph - N/A Rain Rain
6:15 AM 66.6 °F - 62.6 °F 87% 30.09 in 7.0 mi SSE 3.5 mph - N/A Rain Rain
6:35 AM 66.6 °F - 62.6 °F 87% 30.10 in 10.0 mi SSW 3.5 mph - N/A Rain Heavy Rain
6:55 AM 66.6 °F - 62.6 °F 87% 30.10 in 10.0 mi SSW 3.5 mph - N/A Rain Rain
7:15 AM 66.2 °F - 62.8 °F 89% 30.11 in 7.0 mi South 4.6 mph - N/A Rain Heavy Rain
7:35 AM 66.2 °F - 62.1 °F 86% 30.11 in 5.0 mi South 8.1 mph - N/A Rain Heavy Rain
7:55 AM 67.3 °F - 61.2 °F 81% 30.12 in 5.0 mi SSW 5.8 mph - N/A Rain Heavy Rain
8:15 AM 68.5 °F - 60.3 °F 75% 30.12 in - Calm Calm - N/A Rain Heavy Rain
8:35 AM 68.9 °F - 61.2 °F 76% 30.12 in 7.0 mi ESE 6.9 mph - N/A   Overcast
8:55 AM 68.9 °F - 61.0 °F 76% 30.12 in 7.0 mi South 6.9 mph - N/A   Overcast
9:15 AM 69.1 °F - 62.8 °F 80% 30.12 in 7.0 mi South 4.6 mph - N/A   Overcast
9:35 AM 69.8 °F - 62.2 °F 77% 30.12 in 7.0 mi South 6.9 mph - N/A   Scattered Clouds
9:55 AM 69.8 °F - 62.8 °F 78% 30.13 in 10.0 mi SE 4.6 mph - N/A   Mostly Cloudy
10:15 AM 70.7 °F - 63.9 °F 79% 30.13 in 10.0 mi SSE 3.5 mph - N/A   Mostly Cloudy
10:35 AM 71.6 °F - 64.4 °F 78% 30.13 in 10.0 mi SSE 4.6 mph - N/A   Scattered Clouds
10:55 AM 73.0 °F - 65.7 °F 78% 30.14 in 10.0 mi South 5.8 mph - N/A   Scattered Clouds
11:15 AM 75.9 °F - 65.1 °F 69% 30.14 in 10.0 mi South 9.2 mph - N/A   Clear
11:35 AM 76.5 °F - 63.7 °F 64% 30.14 in 10.0 mi South 4.6 mph - N/A   Clear
11:55 AM 77.9 °F - 60.8 °F 56% 30.14 in 10.0 mi South 5.8 mph - N/A   Clear
12:15 PM 80.1 °F 80.8 °F 59.5 °F 49% 30.14 in 10.0 mi South 8.1 mph - N/A   Clear
12:35 PM 80.2 °F 81.0 °F 60.3 °F 50% 30.12 in 10.0 mi South 8.1 mph - N/A   Clear
12:55 PM 79.2 °F - 61.0 °F 54% 30.12 in 10.0 mi SSE 6.9 mph - N/A   Clear
1:15 PM 79.0 °F - 60.8 °F 54% 30.10 in 10.0 mi SSE 9.2 mph - N/A   Clear
1:35 PM 80.6 °F 81.7 °F 62.2 °F 53% 30.10 in 10.0 mi SE 8.1 mph - N/A   Clear
1:55 PM 82.4 °F 83.7 °F 63.5 °F 53% 30.11 in 10.0 mi SE 9.2 mph - N/A   Clear
2:15 PM 83.5 °F 84.5 °F 63.3 °F 50% 30.10 in 10.0 mi SE 8.1 mph - N/A   Clear
2:35 PM 84.7 °F 85.0 °F 61.2 °F 45% 30.10 in 10.0 mi SE 10.4 mph - N/A   Clear
2:55 PM 84.9 °F 85.4 °F 61.9 °F 46% 30.10 in 10.0 mi SE 10.4 mph - N/A   Clear
3:15 PM 84.6 °F 85.2 °F 62.2 °F 47% 30.10 in 10.0 mi SSE 10.4 mph - N/A   Clear
3:35 PM 84.6 °F 85.4 °F 63.0 °F 48% 30.10 in 10.0 mi SSE 8.1 mph - N/A   Clear
3:55 PM 86.2 °F 86.3 °F 61.3 °F 43% 30.09 in 10.0 mi SSE 10.4 mph - N/A   Clear
4:15 PM 86.0 °F 86.1 °F 60.8 °F 43% 30.09 in 10.0 mi SSE 9.2 mph - N/A   Scattered Clouds
4:35 PM 85.3 °F 85.2 °F 60.4 °F 43% 30.09 in 5.0 mi SSE 11.5 mph - N/A   Haze
4:55 PM 84.9 °F 85.0 °F 60.4 °F 44% 30.08 in 7.0 mi South 11.5 mph - N/A   Clear
5:15 PM 84.0 °F 84.5 °F 61.9 °F 47% 30.08 in 7.0 mi SSE 11.5 mph - N/A   Clear
5:35 PM 82.6 °F 83.6 °F 63.0 °F 51% 30.08 in 5.0 mi SSE 8.1 mph - N/A   Haze
5:55 PM 82.8 °F 84.2 °F 64.0 °F 53% 30.08 in 7.0 mi SSE 6.9 mph - N/A   Mostly Cloudy
6:15 PM 82.9 °F 84.2 °F 63.5 °F 52% 30.08 in 7.0 mi SE 9.2 mph - N/A   Scattered Clouds
6:35 PM 81.5 °F 83.3 °F 64.9 °F 57% 30.08 in 7.0 mi SE 5.8 mph - N/A   Scattered Clouds
6:55 PM 81.0 °F 82.3 °F 63.5 °F 55% 30.09 in 5.0 mi SE 8.1 mph - N/A   Haze
7:15 PM 79.9 °F - 61.9 °F 54% 30.08 in 7.0 mi SSE 6.9 mph - N/A   Overcast
7:35 PM 77.9 °F - 63.7 °F 61% 30.08 in 7.0 mi SSE 4.6 mph - N/A   Mostly Cloudy
7:55 PM 75.2 °F - 66.7 °F 75% 30.09 in 7.0 mi Calm Calm - N/A   Scattered Clouds
8:15 PM 73.9 °F - 66.6 °F 78% 30.09 in 7.0 mi SE 3.5 mph - N/A   Scattered Clouds
8:35 PM 73.4 °F - 65.3 °F 76% 30.09 in 7.0 mi SSE 3.5 mph - N/A   Clear
8:55 PM 70.3 °F - 65.5 °F 85% 30.10 in 10.0 mi Calm Calm - N/A   Clear
9:15 PM 69.8 °F - 65.5 °F 86% 30.10 in 10.0 mi South 3.5 mph - N/A   Mostly Cloudy
9:35 PM 72.3 °F - 65.1 °F 78% 30.11 in 10.0 mi SSE 6.9 mph - N/A   Overcast
9:55 PM 72.5 °F - 64.9 °F 77% 30.12 in 10.0 mi South 5.8 mph - N/A   Overcast
10:15 PM 69.8 °F - 65.1 °F 85% 30.12 in 10.0 mi Calm Calm - N/A   Scattered Clouds
10:35 PM 69.8 °F - 64.9 °F 84% 30.13 in 10.0 mi SE 5.8 mph - N/A   Clear
10:55 PM 69.1 °F - 64.6 °F 86% 30.13 in 10.0 mi SSE 4.6 mph - N/A   Clear
11:15 PM 69.3 °F - 64.4 °F 84% 30.14 in 10.0 mi SSE 4.6 mph - N/A   Clear
11:35 PM 69.8 °F - 64.0 °F 82% 30.14 in 10.0 mi SSE 5.8 mph - N/A   Scattered Clouds
11:55 PM 69.1 °F - 64.0 °F 84% 30.13 in 10.0 mi SSE 5.8 mph - N/A   Scattered Clouds